Terug naar catalogus

IRIDIUM 130

ActiefCommunicatiePO
NORAD 43073·PAYLOAD·🇺🇸 United States

Gelanceerd Dec 23, 2017 vanaf Vandenberg Space Force Base

Loading…

Volgende Passages (komende 24 uur)

TLE

VersSource: CelesTrak SupGP

Epoch: Sep 14, 2026, 20:32 UTC

1 43073C 17083D   26257.85590278  .00001291  00000+0  46168-3 0  2579
2 43073  86.3922 284.7979 0002264  88.7857  14.9696 14.34215360    17

Volg IRIDIUM 130 in realtime met AllMySat

Download on the App Store